TimeCST,TemperatureF,Dew PointF,Humidity,Sea Level PressureIn,VisibilityMPH,Wind Direction,Wind SpeedMPH,Gust SpeedMPH,PrecipitationIn,Events,Conditions,WindDirDegrees,DateUTC
12:53 AM,18.0,15.1,88,30.27,10.0,Calm,Calm,-,N/A,,Clear,0,2011-11-21 06:53:00
1:53 AM,19.0,16.0,88,30.25,10.0,Calm,Calm,-,N/A,,Clear,0,2011-11-21 07:53:00
2:53 AM,15.1,12.9,91,30.24,10.0,NE,3.5,-,N/A,,Clear,50,2011-11-21 08:53:00
3:53 AM,17.1,15.1,92,30.23,10.0,Calm,Calm,-,N/A,,Clear,0,2011-11-21 09:53:00
4:53 AM,17.1,15.1,92,30.22,10.0,Calm,Calm,-,N/A,,Clear,0,2011-11-21 10:53:00
5:53 AM,12.9,10.9,92,30.25,10.0,WSW,4.6,-,N/A,,Clear,240,2011-11-21 11:53:00
6:53 AM,14.0,12.0,92,30.25,10.0,SSW,4.6,-,N/A,,Clear,210,2011-11-21 12:53:00
7:53 AM,14.0,10.9,88,30.25,10.0,SW,8.1,-,N/A,,Clear,230,2011-11-21 13:53:00
8:53 AM,19.0,16.0,88,30.25,10.0,SSW,4.6,-,N/A,,Clear,210,2011-11-21 14:53:00
9:53 AM,24.1,21.0,88,30.24,10.0,South,3.5,-,N/A,,Clear,190,2011-11-21 15:53:00
10:53 AM,28.9,25.0,85,30.23,10.0,Calm,Calm,-,N/A,,Clear,0,2011-11-21 16:53:00
11:53 AM,37.0,26.1,65,30.20,10.0,South,9.2,-,N/A,,Clear,190,2011-11-21 17:53:00
12:53 PM,41.0,27.0,57,30.14,10.0,SE,5.8,-,N/A,,Clear,130,2011-11-21 18:53:00
1:53 PM,44.1,27.0,51,30.08,10.0,Calm,Calm,-,N/A,,Clear,0,2011-11-21 19:53:00
2:53 PM,44.1,27.0,51,30.08,10.0,SSE,8.1,-,N/A,,Clear,150,2011-11-21 20:53:00
3:53 PM,42.1,27.0,55,30.06,10.0,SSE,4.6,-,N/A,,Clear,150,2011-11-21 21:53:00
4:53 PM,39.0,27.0,62,30.08,10.0,SE,5.8,-,N/A,,Clear,130,2011-11-21 22:53:00
5:53 PM,35.1,25.0,67,30.09,10.0,SSE,4.6,-,N/A,,Clear,150,2011-11-21 23:53:00
6:53 PM,32.0,24.1,73,30.11,10.0,Calm,Calm,-,N/A,,Clear,0,2011-11-22 00:53:00
7:53 PM,30.0,24.1,79,30.14,10.0,Calm,Calm,-,N/A,,Clear,0,2011-11-22 01:53:00
8:53 PM,28.0,23.0,81,30.13,10.0,Calm,Calm,-,N/A,,Clear,0,2011-11-22 02:53:00
9:53 PM,25.0,21.0,85,30.13,10.0,Calm,Calm,-,N/A,,Clear,0,2011-11-22 03:53:00
10:53 PM,23.0,21.0,92,30.13,9.0,Calm,Calm,-,N/A,,Overcast,0,2011-11-22 04:53:00
11:53 PM,24.1,21.0,88,30.12,9.0,SSW,3.5,-,N/A,,Clear,210,2011-11-22 05:53:00